STARLINK-1071 (44934 NORAD) Tracking and Keplerian Element Data

This shows tracking and keplerian element data for the satellite.

Feedback or suggestion? Click here.




ElementValue
Catalog44934
NameSTARLINK-1071
Epoch Orbit178
Epoch Day52.91667824
Epoch Year2020
RAAN168.9017
Inclination52.9957
Eccentricity0.0007262
Argument of Perigee4.3292
Mean Anonmoly13.9997
Mean Motion15.73193983
Decay Rate-8.999E-05
L11 44934U 20001W 20052.91667824 -.00008999 00000-0 -59587-4 0 9994
L22 44934 52.9957 168.9017 0007262 4.3292 13.9997 15.73193983 1785

Live tracking and technical data element details for STARLINK-1071 (NORAD 44934). STARLINK-1071 can be tracked NOW for your location showing map with azimuth and elevation plus other details from your city location.

Track the satellite on the map from your city or location and see movement details for azimuth, elevation, latitude, longitude, range, height, and movement on the map or in text.







IsCatalogInMostPopularTable: catalog: 44934, numindb: 14
Update: records affected: 1



GetName: 44934 STARLINK-1071

Hit Count: updated at: Wed, 26 Feb 2020 15:56:43 GMT